QPF
0.01 0.01 0.01 0.00 0.00 0.00 0.00 0.00 0.00 0.00 0.00 0.00 0.00 0.01 0.01 0.01 0.01 0.00 0.00 0.00 0.00 0.00 0.00 0.00 0.00 0.00 0.00 0.01 0.02 0.02 0.02 0.01 0.01 0.01 0.02 0.02 0.01 0.01 0.01 0.02 0.01 0.01 0.02 0.01
0.01 0.01 0.01 0.00 0.00 0.00 0.00 0.00 0.00 0.00 0.00 0.00 0.00 0.00 0.00 0.00 0.00 0.01 0.01 0.01 0.01 0.01 0.01 0.00 0.00 0.00 0.00 0.00 0.01 0.02 0.02 0.01 0.01 0.01 0.01 0.02 0.01 0.01 0.01 0.01 0.01 0.01 0.01 0.01
0.01 0.01 0.01 0.01 0.00 0.00 0.00 0.00 0.00 0.00 0.00 0.00 0.00 0.00 0.00 0.00 0.00 0.00 0.00 0.01 0.01 0.01 0.01 0.01 0.00 0.00 0.00 0.00 0.01 0.02 0.02 0.01 0.01 0.02 0.01 0.01 0.01 0.01 0.01 0.01 0.02 0.02 0.02 0.02
0.01 0.01 0.01 0.00 0.00 0.00 0.00 0.00 0.00 0.00 0.00 0.00 0.00 0.00 0.00 0.00 0.00 0.00 0.00 0.00 0.00 0.00 0.00 0.00 0.00 0.00 0.00 0.00 0.01 0.02 0.02 0.01 0.01 0.01 0.01 0.01 0.01 0.01 0.01 0.01 0.01 0.02 0.02 0.03
0.01 0.01 0.00 0.00 0.00 0.00 0.00 0.00 0.00 0.00 0.00 0.00 0.00 0.00 0.00 0.00 0.00 0.00 0.00 0.00 0.00 0.00 0.01 0.01 0.01 0.01 0.01 0.01 0.01 0.01 0.02 0.02 0.01 0.01 0.01 0.01 0.01 0.01 0.01 0.00 0.00 0.00 0.01 0.01
0.01 0.01 0.01 0.00 0.00 0.00 0.00 0.00 0.00 0.01 0.01 0.01 0.01 0.01 0.00 0.00 0.00 0.00 0.00 0.00 0.00 0.00 0.01 0.01 0.01 0.01 0.01 0.01 0.01 0.01 0.02 0.02 0.02 0.01 0.01 0.00 0.01 0.01 0.01 0.01 0.01 0.01 0.01 0.01
0.01 0.01 0.01 0.00 0.00 0.00 0.01 0.01 0.01 0.01 0.01 0.01 0.01 0.01 0.00 0.00 0.00 0.00 0.00 0.00 0.00 0.00 0.00 0.01 0.01 0.01 0.01 0.01 0.01 0.01 0.01 0.01 0.01 0.01 0.01 0.00 0.00 0.01 0.01 0.01 0.01 0.01 0.01 0.01
0.01 0.01 0.01 0.01 0.01 0.01 0.01 0.02 0.02 0.02 0.01 0.01 0.01 0.01 0.00 0.00 0.00 0.00 0.00 0.00 0.00 0.00 0.00 0.00 0.00 0.00 0.00 0.01 0.01 0.01 0.01 0.01 0.01 0.01 0.00 0.00 0.00 0.00 0.01 0.01 0.01 0.01 0.01 0.01
0.01 0.01 0.01 0.01 0.02 0.01 0.02 0.03 0.03 0.03 0.02 0.01 0.01 0.00 0.00 0.00 0.00 0.00 0.00 0.00 0.00 0.00 0.00 0.00 0.00 0.00 0.00 0.01 0.00 0.00 0.00 0.00 0.01 0.01 0.01 0.01 0.00 0.01 0.01 0.01 0.01 0.01 0.01 0.01
0.00 0.00 0.00 0.01 0.01 0.01 0.01 0.03 0.04 0.04 0.04 0.03 0.01 0.00 0.00 0.00 0.00 0.00 0.00 0.00 0.00 0.00 0.00 0.00 0.00 0.00 0.00 0.00 0.00 0.00 0.00 0.00 0.00 0.00 0.00 0.00 0.01 0.01 0.01 0.01 0.01 0.01 0.01 0.01
0.00 0.00 0.00 0.00 0.00 0.00 0.00 0.01 0.04 0.06 0.06 0.05 0.03 0.01 0.00 0.00 0.00 0.00 0.00 0.00 0.00 0.00 0.00 0.00 0.00 0.00 0.00 0.00 0.00 0.01 0.00 0.00 0.00 0.00 0.00 0.00 0.00 0.01 0.01 0.01 0.01 0.02 0.02 0.02
0.00 0.00 0.00 0.00 0.00 0.00 0.00 0.00 0.02 0.04 0.05 0.07 0.07 0.04 0.01 0.00 0.00 0.00 0.00 0.00 0.00 0.00 0.00 0.00 0.00 0.00 0.00 0.00 0.00 0.00 0.00 0.00 0.00 0.00 0.00 0.00 0.00 0.01 0.02 0.02 0.02 0.02 0.02 0.03
0.00 0.00 0.00 0.00 0.00 0.00 0.00 0.00 0.00 0.01 0.01 0.03 0.05 0.07 0.06 0.04 0.02 0.01 0.01 0.00 0.00 0.00 0.00 0.00 0.00 0.00 0.00 0.00 0.00 0.00 0.00 0.00 0.01 0.01 0.01 0.01 0.00 0.01 0.01 0.02 0.04 0.05 0.04 0.03
0.00 0.00 0.00 0.01 0.01 0.01 0.01 0.00 0.00 0.00 0.00 0.00 0.01 0.02 0.04 0.06 0.05 0.04 0.02 0.01 0.01 0.00 0.00 0.00 0.00 0.00 0.00 0.00 0.01 0.01 0.00 0.00 0.01 0.01 0.01 0.01 0.01 0.01 0.01 0.01 0.02 0.03 0.04 0.05
0.00 0.01 0.01 0.01 0.01 0.01 0.01 0.00 0.01 0.01 0.01 0.00 0.01 0.01 0.02 0.03 0.02 0.02 0.01 0.01 0.01 0.01 0.01 0.01 0.01 0.00 0.00 0.01 0.01 0.01 0.01 0.01 0.01 0.01 0.01 0.01 0.01 0.02 0.02 0.02 0.02 0.02 0.02 0.03
0.00 0.00 0.01 0.01 0.01 0.01 0.01 0.01 0.01 0.01 0.01 0.01 0.01 0.01 0.01 0.01 0.01 0.01 0.02 0.02 0.01 0.01 0.01 0.01 0.01 0.01 0.01 0.01 0.01 0.01 0.01 0.01 0.01 0.02 0.02 0.02 0.02 0.02 0.02 0.03 0.02 0.02 0.02 0.02
0.00 0.00 0.00 0.01 0.01 0.01 0.01 0.01 0.01 0.01 0.02 0.01 0.01 0.01 0.01 0.01 0.01 0.01 0.01 0.01 0.02 0.02 0.02 0.02 0.02 0.01 0.01 0.01 0.01 0.01 0.01 0.02 0.02 0.02 0.01 0.01 0.02 0.02 0.03 0.03 0.03 0.03 0.02 0.02
0.00 0.00 0.01 0.01 0.01 0.01 0.01 0.01 0.01 0.02 0.03 0.02 0.01 0.02 0.02 0.02 0.02 0.01 0.01 0.01 0.01 0.01 0.02 0.02 0.02 0.02 0.02 0.02 0.02 0.02 0.02 0.01 0.01 0.01 0.01 0.02 0.02 0.03 0.04 0.04 0.04 0.03 0.03 0.02
0.01 0.01 0.01 0.01 0.01 0.02 0.01 0.01 0.02 0.02 0.02 0.02 0.01 0.01 0.02 0.02 0.02 0.01 0.01 0.01 0.01 0.02 0.01 0.01 0.02 0.02 0.02 0.02 0.02 0.02 0.02 0.02 0.02 0.02 0.02 0.03 0.03 0.03 0.03 0.04 0.04 0.04 0.03 0.02
0.01 0.01 0.01 0.01 0.01 0.02 0.01 0.01 0.01 0.01 0.02 0.03 0.03 0.02 0.02 0.02 0.01 0.02 0.02 0.02 0.03 0.02 0.02 0.01 0.01 0.01 0.02 0.02 0.02 0.01 0.02 0.02 0.02 0.03 0.03 0.04 0.04 0.04 0.04 0.04 0.04 0.04 0.03 0.02
0.01 0.01 0.01 0.02 0.02 0.02 0.02 0.01 0.01 0.02 0.02 0.02 0.02 0.02 0.02 0.02 0.02 0.02 0.03 0.03 0.04 0.04 0.03 0.02 0.02 0.02 0.02 0.02 0.02 0.01 0.01 0.02 0.02 0.02 0.03 0.03 0.04 0.04 0.04 0.03 0.03 0.03 0.03 0.02
0.01 0.01 0.01 0.01 0.01 0.02 0.02 0.02 0.02 0.02 0.02 0.02 0.02 0.01 0.02 0.02 0.03 0.02 0.02 0.02 0.03 0.03 0.02 0.02 0.02 0.02 0.03 0.02 0.02 0.02 0.02 0.02 0.02 0.03 0.02 0.03 0.03 0.04 0.04 0.04 0.03 0.03 0.02 0.02
0.01 0.01 0.00 0.00 0.01 0.02 0.02 0.02 0.02 0.03 0.02 0.02 0.02 0.02 0.03 0.04 0.04 0.03 0.03 0.03 0.02 0.02 0.02 0.02 0.03 0.03 0.03 0.03 0.03 0.03 0.02 0.02 0.03 0.03 0.02 0.02 0.03 0.03 0.04 0.05 0.05 0.05 0.04 0.03
0.00 0.00 0.01 0.01 0.01 0.02 0.03 0.04 0.04 0.03 0.03 0.02 0.02 0.02 0.02 0.03 0.04 0.04 0.04 0.04 0.04 0.03 0.02 0.02 0.03 0.04 0.04 0.04 0.03 0.03 0.03 0.03 0.03 0.03 0.03 0.03 0.03 0.04 0.05 0.06 0.07 0.06 0.06 0.05
0.01 0.01 0.02 0.02 0.03 0.03 0.03 0.03 0.04 0.04 0.03 0.02 0.01 0.02 0.02 0.03 0.03 0.03 0.04 0.04 0.04 0.04 0.04 0.04 0.05 0.04 0.04 0.03 0.03 0.03 0.03 0.03 0.03 0.03 0.04 0.04 0.04 0.05 0.06 0.07 0.07 0.07 0.07 0.05
0.01 0.02 0.03 0.04 0.04 0.03 0.02 0.02 0.02 0.02 0.01 0.01 0.01 0.01 0.01 0.02 0.02 0.02 0.02 0.03 0.03 0.04 0.05 0.05 0.04 0.03 0.03 0.03 0.03 0.03 0.02 0.02 0.03 0.03 0.03 0.04 0.05 0.06 0.07 0.07 0.07 0.08 0.08 0.08
0.01 0.02 0.02 0.01 0.01 0.01 0.01 0.01 0.01 0.01 0.01 0.01 0.01 0.01 0.01 0.01 0.01 0.02 0.01 0.02 0.02 0.03 0.04 0.05 0.05 0.04 0.03 0.03 0.04 0.04 0.03 0.03 0.03 0.03 0.04 0.05 0.06 0.07 0.08 0.08 0.08 0.09 0.09 0.09
MSLP
1017.32 1017.61 1017.90 1018.15 1018.34 1018.43 1018.40 1018.24 1017.95 1017.53 1017.02 1016.46 1015.92 1015.42 1015.02 1014.73 1014.57 1014.52 1014.55 1014.65 1014.78 1014.93 1015.09 1015.25 1015.44 1015.68 1015.99 1016.39 1016.89 1017.48 1018.15 1018.87 1019.63 1020.38 1021.11 1021.80 1022.44 1023.01 1023.53 1023.98 1024.38 1024.73 1025.03 1025.28
1017.29 1017.52 1017.72 1017.86 1017.94 1017.93 1017.80 1017.57 1017.23 1016.80 1016.31 1015.81 1015.33 1014.91 1014.59 1014.37 1014.26 1014.24 1014.30 1014.40 1014.53 1014.67 1014.83 1014.99 1015.19 1015.45 1015.77 1016.18 1016.69 1017.29 1017.96 1018.69 1019.45 1020.22 1020.97 1021.69 1022.36 1022.98 1023.54 1024.05 1024.49 1024.88 1025.21 1025.48
1017.26 1017.42 1017.55 1017.61 1017.60 1017.50 1017.31 1017.03 1016.66 1016.23 1015.76 1015.29 1014.87 1014.50 1014.22 1014.04 1013.95 1013.94 1014.00 1014.09 1014.22 1014.36 1014.51 1014.69 1014.91 1015.19 1015.53 1015.97 1016.49 1017.09 1017.76 1018.49 1019.24 1020.01 1020.76 1021.49 1022.18 1022.82 1023.41 1023.95 1024.43 1024.85 1025.21 1025.51
1017.23 1017.35 1017.41 1017.42 1017.36 1017.21 1016.99 1016.68 1016.30 1015.87 1015.43 1014.99 1014.58 1014.24 1013.98 1013.79 1013.69 1013.66 1013.69 1013.77 1013.87 1014.00 1014.16 1014.35 1014.59 1014.90 1015.27 1015.73 1016.27 1016.88 1017.55 1018.27 1019.01 1019.76 1020.49 1021.21 1021.89 1022.53 1023.13 1023.68 1024.18 1024.63 1025.01 1025.35
1017.21 1017.29 1017.33 1017.32 1017.23 1017.08 1016.84 1016.54 1016.17 1015.76 1015.33 1014.90 1014.50 1014.16 1013.87 1013.66 1013.52 1013.45 1013.43 1013.46 1013.53 1013.65 1013.80 1014.01 1014.27 1014.60 1015.00 1015.48 1016.04 1016.66 1017.33 1018.03 1018.75 1019.47 1020.18 1020.87 1021.53 1022.15 1022.73 1023.28 1023.78 1024.23 1024.64 1025.01
1017.18 1017.26 1017.29 1017.28 1017.21 1017.07 1016.86 1016.58 1016.24 1015.85 1015.44 1015.02 1014.61 1014.25 1013.93 1013.67 1013.47 1013.33 1013.26 1013.23 1013.26 1013.35 1013.49 1013.69 1013.97 1014.32 1014.74 1015.24 1015.81 1016.43 1017.10 1017.79 1018.48 1019.17 1019.85 1020.50 1021.12 1021.71 1022.26 1022.78 1023.27 1023.73 1024.15 1024.54
1017.16 1017.23 1017.28 1017.29 1017.26 1017.16 1016.99 1016.75 1016.45 1016.09 1015.70 1015.28 1014.87 1014.48 1014.12 1013.81 1013.55 1013.35 1013.21 1013.12 1013.11 1013.15 1013.27 1013.46 1013.74 1014.09 1014.52 1015.02 1015.59 1016.21 1016.86 1017.53 1018.20 1018.86 1019.50 1020.11 1020.68 1021.23 1021.75 1022.24 1022.70 1023.15 1023.57 1023.98
1017.11 1017.19 1017.26 1017.30 1017.31 1017.26 1017.14 1016.96 1016.70 1016.39 1016.02 1015.63 1015.22 1014.81 1014.42 1014.07 1013.75 1013.49 1013.29 1013.15 1013.09 1013.09 1013.17 1013.34 1013.59 1013.93 1014.34 1014.84 1015.39 1015.99 1016.62 1017.26 1017.90 1018.53 1019.13 1019.70 1020.23 1020.74 1021.22 1021.68 1022.12 1022.54 1022.96 1023.38
1017.03 1017.10 1017.19 1017.26 1017.31 1017.31 1017.26 1017.13 1016.93 1016.66 1016.34 1015.97 1015.58 1015.17 1014.77 1014.39 1014.05 1013.75 1013.51 1013.32 1013.21 1013.17 1013.21 1013.33 1013.54 1013.84 1014.22 1014.68 1015.20 1015.76 1016.35 1016.96 1017.57 1018.16 1018.72 1019.25 1019.75 1020.22 1020.67 1021.09 1021.51 1021.92 1022.34 1022.76
1016.90 1016.97 1017.06 1017.16 1017.24 1017.28 1017.28 1017.21 1017.07 1016.85 1016.58 1016.25 1015.89 1015.51 1015.12 1014.75 1014.40 1014.09 1013.82 1013.60 1013.45 1013.37 1013.36 1013.43 1013.59 1013.83 1014.15 1014.54 1015.00 1015.51 1016.05 1016.61 1017.17 1017.72 1018.25 1018.75 1019.21 1019.65 1020.07 1020.48 1020.87 1021.27 1021.68 1022.10
1016.74 1016.78 1016.87 1016.97 1017.08 1017.16 1017.19 1017.17 1017.08 1016.93 1016.71 1016.44 1016.13 1015.79 1015.44 1015.09 1014.76 1014.45 1014.18 1013.95 1013.77 1013.65 1013.60 1013.61 1013.70 1013.87 1014.11 1014.43 1014.81 1015.24 1015.71 1016.21 1016.71 1017.21 1017.69 1018.16 1018.59 1019.01 1019.41 1019.79 1020.17 1020.56 1020.97 1021.39
1016.56 1016.58 1016.65 1016.76 1016.87 1016.97 1017.03 1017.05 1017.01 1016.91 1016.74 1016.53 1016.28 1016.00 1015.70 1015.40 1015.10 1014.82 1014.56 1014.34 1014.14 1014.00 1013.90 1013.85 1013.87 1013.96 1014.11 1014.34 1014.62 1014.96 1015.35 1015.76 1016.19 1016.63 1017.06 1017.48 1017.88 1018.27 1018.65 1019.02 1019.39 1019.77 1020.17 1020.59
1016.43 1016.42 1016.47 1016.57 1016.68 1016.78 1016.86 1016.90 1016.90 1016.84 1016.72 1016.57 1016.37 1016.15 1015.91 1015.66 1015.42 1015.17 1014.94 1014.73 1014.53 1014.37 1014.23 1014.14 1014.09 1014.10 1014.16 1014.29 1014.47 1014.71 1015.00 1015.32 1015.66 1016.03 1016.39 1016.76 1017.12 1017.47 1017.82 1018.18 1018.53 1018.91 1019.30 1019.71
1016.37 1016.35 1016.39 1016.47 1016.57 1016.67 1016.75 1016.81 1016.82 1016.78 1016.71 1016.59 1016.45 1016.28 1016.09 1015.90 1015.70 1015.50 1015.30 1015.11 1014.93 1014.75 1014.60 1014.46 1014.36 1014.30 1014.28 1014.32 1014.40 1014.54 1014.72 1014.94 1015.19 1015.46 1015.75 1016.05 1016.35 1016.66 1016.98 1017.30 1017.64 1017.99 1018.37 1018.76
1016.43 1016.41 1016.44 1016.51 1016.60 1016.69 1016.76 1016.81 1016.82 1016.80 1016.74 1016.65 1016.54 1016.41 1016.27 1016.12 1015.97 1015.81 1015.65 1015.49 1015.32 1015.15 1014.99 1014.83 1014.69 1014.58 1014.50 1014.45 1014.45 1014.49 1014.57 1014.68 1014.83 1015.01 1015.21 1015.43 1015.66 1015.91 1016.17 1016.45 1016.75 1017.07 1017.42 1017.79
1016.62 1016.60 1016.64 1016.70 1016.78 1016.85 1016.90 1016.93 1016.93 1016.90 1016.84 1016.77 1016.67 1016.56 1016.45 1016.34 1016.22 1016.10 1015.98 1015.84 1015.70 1015.55 1015.39 1015.23 1015.08 1014.93 1014.81 1014.70 1014.63 1014.58 1014.57 1014.59 1014.64 1014.72 1014.82 1014.94 1015.09 1015.27 1015.46 1015.68 1015.93 1016.21 1016.51 1016.83
1016.90 1016.91 1016.95 1017.01 1017.07 1017.12 1017.15 1017.15 1017.13 1017.08 1017.00 1016.92 1016.83 1016.73 1016.64 1016.54 1016.46 1016.36 1016.27 1016.17 1016.05 1015.93 1015.79 1015.64 1015.49 1015.33 1015.18 1015.03 1014.91 1014.80 1014.71 1014.64 1014.60 1014.58 1014.58 1014.61 1014.67 1014.76 1014.88 1015.02 1015.21 1015.42 1015.65 1015.91
1017.22 1017.26 1017.32 1017.37 1017.42 1017.44 1017.43 1017.40 1017.34 1017.26 1017.17 1017.07 1016.97 1016.87 1016.79 1016.71 1016.63 1016.57 1016.50 1016.42 1016.34 1016.24 1016.13 1016.00 1015.85 1015.70 1015.54 1015.38 1015.21 1015.05 1014.90 1014.76 1014.64 1014.53 1014.45 1014.38 1014.35 1014.35 1014.38 1014.45 1014.55 1014.69 1014.85 1015.04
1017.50 1017.57 1017.63 1017.68 1017.70 1017.70 1017.66 1017.59 1017.50 1017.39 1017.27 1017.15 1017.04 1016.94 1016.85 1016.78 1016.72 1016.66 1016.61 1016.55 1016.49 1016.42 1016.32 1016.22 1016.09 1015.94 1015.78 1015.61 1015.42 1015.23 1015.04 1014.84 1014.65 1014.47 1014.30 1014.16 1014.04 1013.95 1013.90 1013.89 1013.91 1013.97 1014.06 1014.17
1017.68 1017.75 1017.81 1017.85 1017.85 1017.81 1017.74 1017.63 1017.51 1017.38 1017.24 1017.11 1016.98 1016.88 1016.79 1016.71 1016.65 1016.60 1016.56 1016.51 1016.45 1016.39 1016.31 1016.21 1016.09 1015.95 1015.79 1015.61 1015.41 1015.19 1014.96 1014.72 1014.48 1014.24 1014.01 1013.80 1013.61 1013.45 1013.32 1013.23 1013.18 1013.17 1013.19 1013.23
1017.69 1017.76 1017.81 1017.82 1017.78 1017.72 1017.62 1017.49 1017.35 1017.20 1017.04 1016.90 1016.77 1016.66 1016.57 1016.49 1016.42 1016.36 1016.30 1016.24 1016.18 1016.10 1016.01 1015.91 1015.78 1015.63 1015.46 1015.27 1015.05 1014.82 1014.56 1014.29 1014.02 1013.73 1013.46 1013.19 1012.95 1012.73 1012.55 1012.40 1012.29 1012.21 1012.17 1012.16
1017.54 1017.59 1017.60 1017.58 1017.52 1017.42 1017.30 1017.16 1017.00 1016.84 1016.69 1016.54 1016.41 1016.29 1016.19 1016.09 1016.00 1015.92 1015.83 1015.74 1015.64 1015.53 1015.41 1015.28 1015.12 1014.95 1014.76 1014.55 1014.31 1014.05 1013.78 1013.49 1013.19 1012.88 1012.57 1012.27 1011.99 1011.74 1011.51 1011.32 1011.16 1011.04 1010.96 1010.90
1017.26 1017.27 1017.24 1017.18 1017.09 1016.97 1016.83 1016.68 1016.52 1016.36 1016.21 1016.07 1015.93 1015.80 1015.67 1015.55 1015.43 1015.30 1015.16 1015.02 1014.86 1014.70 1014.52 1014.34 1014.14 1013.93 1013.70 1013.45 1013.19 1012.92 1012.62 1012.32 1012.00 1011.68 1011.36 1011.04 1010.75 1010.47 1010.22 1010.00 1009.82 1009.67 1009.55 1009.46
1016.91 1016.87 1016.81 1016.71 1016.59 1016.46 1016.31 1016.15 1015.99 1015.83 1015.68 1015.53 1015.38 1015.23 1015.07 1014.91 1014.73 1014.55 1014.34 1014.13 1013.90 1013.66 1013.42 1013.16 1012.90 1012.63 1012.36 1012.08 1011.79 1011.49 1011.18 1010.86 1010.54 1010.21 1009.88 1009.57 1009.26 1008.98 1008.72 1008.49 1008.29 1008.13 1007.99 1007.89
1016.58 1016.50 1016.39 1016.26 1016.12 1015.96 1015.80 1015.64 1015.48 1015.33 1015.16 1015.00 1014.83 1014.64 1014.44 1014.22 1013.98 1013.72 1013.44 1013.14 1012.82 1012.50 1012.17 1011.85 1011.52 1011.19 1010.87 1010.54 1010.22 1009.89 1009.56 1009.23 1008.90 1008.58 1008.25 1007.94 1007.64 1007.36 1007.11 1006.88 1006.67 1006.50 1006.36 1006.26
1016.34 1016.20 1016.06 1015.90 1015.74 1015.57 1015.40 1015.23 1015.06 1014.89 1014.71 1014.52 1014.31 1014.07 1013.81 1013.52 1013.21 1012.86 1012.49 1012.11 1011.71 1011.30 1010.89 1010.49 1010.09 1009.71 1009.33 1008.96 1008.60 1008.24 1007.89 1007.55 1007.21 1006.88 1006.56 1006.25 1005.96 1005.69 1005.45 1005.22 1005.03 1004.86 1004.73 1004.62
1016.21 1016.04 1015.86 1015.68 1015.49 1015.31 1015.12 1014.94 1014.75 1014.55 1014.33 1014.09 1013.82 1013.52 1013.19 1012.82 1012.42 1012.00 1011.54 1011.08 1010.60 1010.11 1009.63 1009.16 1008.70 1008.26 1007.82 1007.40 1007.00 1006.60 1006.22 1005.85 1005.50 1005.16 1004.83 1004.53 1004.25 1004.00 1003.77 1003.56 1003.39 1003.24 1003.12 1003.03
Thickness
5676 5675 5672 5673 5675 5675 5674 5677 5674 5680 5681 5686 5687 5685 5684 5682 5680 5678 5677 5677 5676 5676 5677 5677 5678 5677 5677 5677 5678 5677 5676 5675 5674 5673 5672 5671 5670 5669 5668 5667 5666 5664 5663 5661
5666 5667 5665 5665 5672 5673 5672 5674 5675 5675 5677 5687 5685 5682 5678 5677 5673 5671 5670 5670 5671 5671 5671 5671 5672 5671 5671 5671 5672 5672 5671 5669 5668 5667 5666 5665 5665 5664 5663 5661 5660 5660 5659 5658
5660 5661 5657 5660 5673 5672 5671 5674 5673 5670 5678 5679 5674 5671 5670 5670 5667 5665 5664 5664 5664 5665 5666 5666 5666 5666 5665 5665 5666 5665 5665 5663 5662 5662 5660 5659 5659 5658 5657 5656 5656 5655 5655 5654
5652 5652 5644 5671 5678 5674 5670 5670 5672 5672 5673 5671 5669 5667 5667 5665 5662 5660 5658 5658 5658 5658 5659 5659 5660 5659 5659 5659 5659 5658 5657 5657 5656 5655 5655 5654 5653 5653 5652 5652 5651 5650 5649 5649
5644 5645 5656 5666 5668 5664 5661 5662 5668 5665 5664 5663 5661 5659 5660 5660 5656 5654 5653 5652 5651 5651 5652 5652 5651 5651 5651 5652 5651 5650 5649 5649 5649 5649 5648 5647 5647 5647 5647 5647 5646 5645 5645 5643
5637 5633 5641 5660 5662 5662 5657 5654 5663 5659 5656 5653 5652 5651 5654 5652 5649 5647 5646 5645 5644 5643 5644 5643 5643 5643 5643 5643 5643 5643 5642 5642 5642 5641 5641 5641 5641 5641 5641 5640 5639 5639 5639 5638
5634 5633 5647 5655 5652 5651 5641 5650 5655 5653 5650 5647 5646 5648 5647 5644 5642 5640 5638 5637 5636 5635 5635 5634 5634 5634 5634 5634 5634 5635 5635 5635 5634 5634 5634 5634 5634 5634 5633 5633 5633 5633 5633 5633
5631 5628 5637 5645 5644 5641 5645 5648 5646 5645 5643 5640 5639 5638 5637 5635 5633 5632 5630 5629 5628 5626 5626 5626 5626 5625 5625 5625 5625 5625 5626 5626 5627 5627 5627 5627 5626 5625 5625 5625 5624 5625 5625 5625
5634 5636 5639 5639 5639 5640 5639 5638 5637 5636 5635 5632 5630 5629 5627 5627 5626 5624 5622 5621 5620 5618 5618 5617 5617 5616 5616 5616 5616 5617 5617 5618 5618 5619 5619 5618 5618 5617 5618 5617 5617 5618 5618 5618
5626 5631 5631 5630 5631 5631 5630 5629 5629 5629 5627 5625 5622 5621 5620 5619 5617 5616 5614 5612 5611 5610 5610 5609 5608 5608 5608 5608 5608 5609 5609 5610 5610 5610 5611 5610 5609 5609 5609 5610 5609 5609 5609 5610
5619 5624 5622 5623 5623 5623 5622 5622 5621 5620 5619 5617 5615 5613 5611 5610 5609 5607 5606 5604 5603 5602 5601 5601 5600 5600 5599 5599 5599 5600 5601 5602 5602 5601 5602 5601 5600 5600 5600 5601 5601 5600 5601 5601
5614 5620 5617 5618 5617 5616 5614 5613 5612 5610 5609 5607 5606 5604 5602 5601 5600 5599 5597 5596 5594 5594 5593 5593 5592 5591 5591 5590 5590 5591 5592 5592 5592 5592 5592 5591 5592 5592 5590 5590 5589 5588 5589 5589
5611 5611 5609 5609 5608 5607 5606 5605 5603 5602 5600 5598 5596 5595 5593 5591 5591 5589 5588 5586 5585 5584 5583 5583 5582 5582 5582 5581 5582 5582 5583 5583 5582 5582 5582 5582 5583 5583 5584 5582 5580 5579 5579 5579
5600 5598 5597 5599 5598 5597 5596 5595 5594 5592 5590 5588 5586 5584 5583 5581 5580 5579 5578 5577 5576 5575 5574 5574 5573 5573 5573 5573 5572 5572 5572 5572 5571 5572 5572 5573 5574 5574 5574 5575 5575 5575 5573 5571
5591 5590 5591 5590 5588 5587 5586 5584 5583 5581 5579 5578 5576 5574 5572 5571 5570 5570 5569 5567 5566 5565 5564 5563 5563 5563 5562 5562 5562 5562 5562 5562 5561 5561 5561 5562 5563 5564 5565 5565 5566 5567 5567 5566
5583 5582 5580 5579 5578 5577 5576 5574 5573 5571 5569 5567 5565 5564 5563 5562 5560 5559 5558 5557 5556 5555 5554 5553 5552 5552 5551 5551 5551 5551 5551 5550 5549 5550 5551 5552 5553 5554 5554 5555 5556 5557 5557 5557
5573 5572 5571 5570 5569 5568 5567 5565 5563 5561 5559 5557 5556 5554 5553 5552 5550 5549 5548 5546 5545 5544 5543 5542 5541 5541 5541 5540 5540 5541 5541 5541 5538 5539 5540 5541 5542 5542 5543 5544 5545 5546 5547 5546
5566 5566 5565 5563 5561 5559 5557 5555 5552 5551 5549 5547 5546 5544 5543 5542 5540 5539 5537 5536 5534 5533 5533 5532 5531 5530 5530 5529 5529 5529 5529 5530 5529 5529 5529 5529 5529 5530 5531 5532 5534 5535 5536 5536
5556 5554 5553 5551 5550 5548 5547 5545 5543 5541 5539 5537 5535 5534 5532 5531 5529 5528 5527 5525 5524 5523 5522 5521 5518 5519 5520 5519 5517 5518 5518 5519 5519 5519 5518 5517 5518 5519 5520 5522 5523 5525 5525 5525
5546 5544 5542 5540 5539 5537 5536 5534 5532 5531 5529 5527 5526 5524 5523 5520 5518 5517 5516 5514 5512 5511 5510 5509 5509 5509 5509 5508 5505 5507 5506 5507 5507 5507 5507 5507 5508 5509 5510 5511 5513 5513 5515 5516
5536 5534 5532 5530 5529 5527 5526 5524 5522 5521 5519 5517 5515 5514 5512 5510 5508 5506 5505 5504 5502 5499 5498 5497 5498 5498 5498 5496 5494 5495 5495 5494 5495 5495 5495 5495 5496 5498 5499 5501 5502 5503 5504 5505
5526 5524 5522 5521 5519 5518 5516 5514 5512 5510 5509 5507 5505 5503 5501 5499 5498 5496 5494 5491 5490 5486 5486 5487 5487 5486 5486 5484 5485 5484 5483 5483 5483 5483 5483 5483 5485 5486 5488 5489 5491 5492 5494 5495
5517 5515 5513 5511 5509 5508 5506 5504 5502 5500 5498 5496 5495 5493 5491 5489 5487 5485 5484 5482 5479 5476 5476 5476 5475 5474 5473 5474 5474 5474 5473 5473 5472 5472 5472 5473 5474 5475 5476 5478 5478 5480 5481 5483
5506 5505 5503 5501 5499 5498 5496 5494 5491 5489 5487 5486 5484 5482 5480 5478 5477 5475 5472 5469 5467 5465 5466 5465 5463 5462 5461 5463 5463 5463 5463 5462 5461 5461 5461 5462 5463 5464 5465 5466 5467 5468 5469 5471
5495 5494 5492 5490 5489 5487 5485 5483 5481 5478 5477 5476 5474 5472 5470 5468 5466 5464 5462 5459 5456 5455 5455 5455 5453 5452 5451 5452 5452 5452 5451 5451 5450 5450 5451 5451 5452 5453 5454 5455 5457 5458 5459 5460
5484 5483 5481 5480 5478 5475 5474 5472 5471 5469 5467 5466 5464 5462 5460 5458 5455 5453 5451 5449 5448 5445 5445 5444 5444 5442 5442 5442 5441 5440 5439 5439 5440 5440 5440 5441 5442 5443 5444 5445 5447 5448 5449 5449
5473 5472 5470 5468 5467 5465 5463 5462 5460 5459 5457 5455 5453 5451 5449 5447 5446 5443 5442 5440 5438 5437 5436 5434 5433 5432 5431 5431 5430 5430 5430 5430 5430 5430 5431 5432 5433 5434 5435 5436 5437 5438 5439 5439